• în România
  • Lista ţărilor
  • Pe 7 zile
  • Temperatura apei
  • Hartă satelitară
  • Meteo pe hartă
  • Widget-uri
  • user-avatar
    Intrare

    Meteo pe oră la Ertil

    Astăzi, 20 Septembrie, Joi

    Timp Temperatura Precipitaţii Vânt Presiune Umiditate
    00:00 +15°C° 0 mm 4 m/s 748 mmHg 80%
    01:00 +15°C° 0 mm 4 m/s 748 mmHg 83%
    02:00 +15°C° 0 mm 4 m/s 748 mmHg 85%
    03:00 +14°C° 0 mm 4 m/s 748 mmHg 87%
    04:00 +14°C° 0 mm 4 m/s 748 mmHg 88%
    05:00 +14°C° 0 mm 4 m/s 748 mmHg 90%
    06:00 +13°C° 0 mm 3 m/s 748 mmHg 92%
    07:00 +15°C° 0 mm 4 m/s 748 mmHg 86%
    08:00 +18°C° 0 mm 4 m/s 748 mmHg 80%
    09:00 +19°C° 0 mm 4 m/s 748 mmHg 74%
    10:00 +21°C° 0 mm 5 m/s 748 mmHg 68%
    11:00 +23°C° 0 mm 5 m/s 748 mmHg 62%
    12:00 +24°C° 0 mm 6 m/s 748 mmHg 56%
    13:00 +26°C° 0 mm 6 m/s 748 mmHg 55%
    14:00 +26°C° 0 mm 6 m/s 748 mmHg 53%
    15:00 +27°C° 0 mm 6 m/s 747 mmHg 52%
    16:00 +25°C° 0 mm 5 m/s 747 mmHg 57%
    17:00 +23°C° 0 mm 4 m/s 747 mmHg 62%
    18:00 +22°C° 0 mm 3 m/s 747 mmHg 66%
    19:00 +21°C° 0 mm 3 m/s 747 mmHg 71%
    20:00 +20°C° 0 mm 3 m/s 748 mmHg 75%
    21:00 +19°C° 0 mm 3 m/s 748 mmHg 80%
    22:00 +19°C° 0 mm 3 m/s 748 mmHg 82%
    23:00 +18°C° 0 mm 3 m/s 748 mmHg 85%

    Mâine, 21 Septembrie, Vineri

    Timp Temperatura Precipitaţii Vânt Presiune Umiditate
    00:00 +17°C° 0 mm 3 m/s 748 mmHg 88%
    01:00 +17°C° 0 mm 3 m/s 749 mmHg 89%
    02:00 +16°C° 0 mm 3 m/s 749 mmHg 90%
    03:00 +14°C° 0 mm 3 m/s 749 mmHg 91%
    04:00 +15°C° 0 mm 2 m/s 749 mmHg 92%
    05:00 +14°C° 0 mm 2 m/s 750 mmHg 92%
    06:00 +14°C° 0 mm 2 m/s 750 mmHg 92%
    07:00 +15°C° 0 mm 2 m/s 750 mmHg 84%
    08:00 +17°C° 0 mm 2 m/s 751 mmHg 76%
    09:00 +18°C° 0 mm 2 m/s 751 mmHg 69%
    10:00 +19°C° 0 mm 2 m/s 751 mmHg 63%
    11:00 +21°C° 0 mm 2 m/s 751 mmHg 57%
    12:00 +23°C° 0 mm 2 m/s 752 mmHg 51%
    13:00 +24°C° 0 mm 2 m/s 751 mmHg 49%
    14:00 +24°C° 0 mm 2 m/s 751 mmHg 48%
    15:00 +25°C° 0 mm 2 m/s 751 mmHg 46%
    16:00 +24°C° 0 mm 2 m/s 751 mmHg 51%
    17:00 +23°C° 0 mm 2 m/s 751 mmHg 55%
    18:00 +22°C° 0 mm 1 m/s 751 mmHg 60%
    19:00 +21°C° 0 mm 1 m/s 751 mmHg 63%
    20:00 +20°C° 0 mm 1 m/s 752 mmHg 66%
    21:00 +19°C° 0 mm 1 m/s 752 mmHg 70%
    22:00 +19°C° 0 mm 1 m/s 752 mmHg 72%
    23:00 +18°C° 0 mm 1 m/s 752 mmHg 73%

    Poimâine, 22 Septembrie, Sâmbătă

    Timp Temperatura Precipitaţii Vânt Presiune Umiditate
    00:00 +18°C° 0 mm 1 m/s 752 mmHg 75%
    01:00 +16°C° 0 mm 1 m/s 752 mmHg 77%
    02:00 +16°C° 0 mm 1 m/s 752 mmHg 78%
    03:00 +16°C° 0 mm 2 m/s 752 mmHg 80%
    04:00 +15°C° 0 mm 2 m/s 752 mmHg 81%
    05:00 +15°C° 0 mm 2 m/s 752 mmHg 82%
    06:00 +15°C° 0 mm 2 m/s 752 mmHg 84%
    07:00 +16°C° 0 mm 2 m/s 752 mmHg 77%
    08:00 +18°C° 0 mm 2 m/s 752 mmHg 71%
    09:00 +19°C° 0 mm 2 m/s 752 mmHg 65%
    10:00 +21°C° 0 mm 3 m/s 752 mmHg 60%
    11:00 +22°C° 0 mm 3 m/s 752 mmHg 55%
    12:00 +25°C° 0 mm 3 m/s 752 mmHg 50%
    13:00 +25°C° 0 mm 3 m/s 751 mmHg 48%
    14:00 +26°C° 0 mm 3 m/s 751 mmHg 46%
    15:00 +26°C° 0 mm 3 m/s 751 mmHg 44%
    16:00 +25°C° 0 mm 3 m/s 750 mmHg 48%
    17:00 +24°C° 0 mm 3 m/s 750 mmHg 53%
    18:00 +21°C° 0 mm 3 m/s 750 mmHg 57%
    19:00 +20°C° 0 mm 3 m/s 750 mmHg 60%
    20:00 +19°C° 0 mm 3 m/s 750 mmHg 62%
    21:00 +19°C° 0 mm 3 m/s 750 mmHg 64%
    22:00 +18°C° 0 mm 4 m/s 749 mmHg 64%
    23:00 +18°C° 0 mm 4 m/s 749 mmHg 64%

    23 Septembrie, Duminică

    Timp Temperatura Precipitaţii Vânt Presiune Umiditate
    00:00 +18°C° 0 mm 4 m/s 749 mmHg 64%
    01:00 +17°C° 0 mm 4 m/s 748 mmHg 65%
    02:00 +17°C° 0 mm 4 m/s 748 mmHg 65%
    03:00 +17°C° 0 mm 4 m/s 748 mmHg 65%
    04:00 +17°C° 0 mm 4 m/s 747 mmHg 65%
    05:00 +15°C° 0 mm 4 m/s 747 mmHg 65%
    06:00 +15°C° 0 mm 4 m/s 746 mmHg 66%
    07:00 +17°C° 0 mm 5 m/s 746 mmHg 61%
    08:00 +19°C° 0 mm 6 m/s 745 mmHg 57%
    09:00 +20°C° 0 mm 6 m/s 745 mmHg 53%
    10:00 +22°C° 0 mm 7 m/s 744 mmHg 50%
    11:00 +23°C° 0 mm 7 m/s 743 mmHg 47%
    12:00 +24°C° 0 mm 8 m/s 743 mmHg 43%
    13:00 +24°C° 0 mm 7 m/s 742 mmHg 43%
    14:00 +24°C° 0 mm 7 m/s 742 mmHg 42%
    15:00 +24°C° 0 mm 7 m/s 742 mmHg 42%
    16:00 +21°C° 0.9 mm 7 m/s 742 mmHg 55%
    17:00 +17°C° 0.9 mm 7 m/s 742 mmHg 68%
    18:00 +12°C° 0.9 mm 7 m/s 742 mmHg 81%
    19:00 +11°C° 1.7 mm 7 m/s 743 mmHg 82%
    20:00 +10°C° 1.7 mm 6 m/s 743 mmHg 82%
    21:00 +9°C° 1.7 mm 6 m/s 744 mmHg 82%
    22:00 +9°C° 0.2 mm 5 m/s 744 mmHg 82%
    23:00 +9°C° 0.2 mm 5 m/s 744 mmHg 83%

    24 Septembrie, Luni

    Timp Temperatura Precipitaţii Vânt Presiune Umiditate
    00:00 +9°C° 0.2 mm 5 m/s 745 mmHg 83%
    01:00 +10°C° 0 mm 4 m/s 745 mmHg 85%
    02:00 +8°C° 0 mm 4 m/s 745 mmHg 87%
    03:00 +8°C° 0 mm 4 m/s 745 mmHg 89%
    04:00 +8°C° 0 mm 4 m/s 745 mmHg 90%
    05:00 +7°C° 0 mm 4 m/s 745 mmHg 91%
    06:00 +7°C° 0 mm 4 m/s 746 mmHg 92%
    07:00 +8°C° 0 mm 4 m/s 746 mmHg 86%
    08:00 +11°C° 0 mm 4 m/s 746 mmHg 80%
    09:00 +12°C° 0 mm 4 m/s 746 mmHg 73%
    10:00 +13°C° 0 mm 5 m/s 746 mmHg 66%
    11:00 +14°C° 0 mm 5 m/s 746 mmHg 59%
    12:00 +15°C° 0 mm 5 m/s 747 mmHg 52%
    13:00 +16°C° 0 mm 5 m/s 747 mmHg 50%
    14:00 +17°C° 0 mm 4 m/s 747 mmHg 48%
    15:00 +17°C° 0 mm 4 m/s 747 mmHg 45%
    16:00 +16°C° 0 mm 3 m/s 746 mmHg 48%
    17:00 +14°C° 0 mm 3 m/s 746 mmHg 51%
    18:00 +14°C° 0 mm 2 m/s 745 mmHg 54%
    19:00 +13°C° 0 mm 3 m/s 745 mmHg 54%
    20:00 +13°C° 0 mm 3 m/s 744 mmHg 54%
    21:00 +12°C° 0 mm 4 m/s 744 mmHg 54%
    22:00 +12°C° 0 mm 4 m/s 744 mmHg 52%
    23:00 +13°C° 0 mm 5 m/s 743 mmHg 50%

    25 Septembrie, Marţi

    Timp Temperatura Precipitaţii Vânt Presiune Umiditate
    00:00 +13°C° 0 mm 6 m/s 743 mmHg 48%
    01:00 +13°C° 0 mm 6 m/s 742 mmHg 48%
    02:00 +12°C° 0 mm 7 m/s 742 mmHg 47%
    03:00 +12°C° 0 mm 7 m/s 741 mmHg 47%
    04:00 +12°C° 0 mm 8 m/s 740 mmHg 45%
    05:00 +13°C° 0 mm 8 m/s 740 mmHg 43%
    06:00 +13°C° 0 mm 8 m/s 739 mmHg 41%
    07:00 +13°C° 0.2 mm 8 m/s 739 mmHg 46%
    08:00 +13°C° 0.2 mm 8 m/s 738 mmHg 52%
    09:00 +12°C° 0.2 mm 8 m/s 738 mmHg 58%
    10:00 +13°C° 1 mm 8 m/s 738 mmHg 64%
    11:00 +13°C° 1 mm 8 m/s 738 mmHg 70%
    12:00 +13°C° 1 mm 8 m/s 738 mmHg 76%
    13:00 +15°C° 0.1 mm 8 m/s 738 mmHg 68%
    14:00 +16°C° 0.1 mm 8 m/s 738 mmHg 59%
    15:00 +17°C° 0.1 mm 8 m/s 738 mmHg 51%
    16:00 +16°C° 0 mm 8 m/s 738 mmHg 52%
    17:00 +15°C° 0 mm 7 m/s 739 mmHg 53%
    18:00 +14°C° 0 mm 6 m/s 739 mmHg 54%
    19:00 +14°C° 0 mm 6 m/s 739 mmHg 56%
    20:00 +13°C° 0 mm 6 m/s 740 mmHg 58%
    21:00 +11°C° 0 mm 6 m/s 740 mmHg 60%
    22:00 +10°C° 0 mm 6 m/s 741 mmHg 62%
    23:00 +10°C° 0 mm 6 m/s 742 mmHg 64%
    Arată mai mult